Helena, Arkansas, United States (72342)
Lat: 34.53N, Lon: 90.59W
Wx Zone: ARZ058
Local Info
Past Weather Observations for Saturday, July 19, 2014

NOTE: This archive is for the closest National Weather Service station to Helena. Information may differ from the station used for current weather conditions.

Click here for Long-term Archive

Time Weather Temperature Dewpoint Humidity Pressure Winds Precip Visibility
23:55
Obscured
Fog
68°F / 20°C 68°F / 20°C 100% 30.01 in
(1016 mb)
Calm - 1/4SM
23:35
Obscured
Fog And Mist
70°F / 21°C 68°F / 20°C 94% 30.01 in
(1016 mb)
Calm - 1SM
23:15
Clear
70°F / 21°C 68°F / 20°C 94% 30.01 in
(1016 mb)
Calm - 7SM
22:55
Partly Cloudy
70°F / 21°C 68°F / 20°C 94% 30.01 in
(1016 mb)
Calm - 10SM
22:35
Overcast
70°F / 21°C 70°F / 21°C 100% 30.01 in
(1016 mb)
SW 3.5 mph
(SW 6 kph)
- 10SM
22:15
Overcast
70°F / 21°C 70°F / 21°C 100% 30.01 in
(1016 mb)
Calm - 10SM
21:55
Overcast
72°F / 22°C 70°F / 21°C 94% 30.01 in
(1016 mb)
Calm - 7SM
21:35
Overcast
72°F / 22°C 70°F / 21°C 94% 30.01 in
(1016 mb)
Calm - 10SM
21:15
Overcast
72°F / 22°C 70°F / 21°C 94% 30.01 in
(1016 mb)
Calm - 10SM
20:55
Overcast
72°F / 22°C 70°F / 21°C 94% 30.01 in
(1016 mb)
Calm - 10SM
20:35
Overcast
72°F / 22°C 70°F / 21°C 94% 30.01 in
(1016 mb)
Calm - 10SM
20:15
Overcast
72°F / 22°C 70°F / 21°C 94% 30.01 in
(1016 mb)
Calm - 10SM
19:55
Overcast
73°F / 23°C 70°F / 21°C 89% 30.01 in
(1016 mb)
Calm - 10SM
19:35
Overcast
73°F / 23°C 70°F / 21°C 89% 30.04 in
(1017 mb)
Calm - 10SM
19:15
Overcast
73°F / 23°C 70°F / 21°C 89% 30.04 in
(1017 mb)
Calm - 10SM
18:55
Overcast
73°F / 23°C 68°F / 20°C 83% 30.04 in
(1017 mb)
Calm - 10SM
18:35
Overcast
73°F / 23°C 68°F / 20°C 83% 30.04 in
(1017 mb)
Calm - 10SM
18:15
Overcast
75°F / 24°C 70°F / 21°C 83% 30.01 in
(1016 mb)
Calm - 10SM
17:55
Overcast
75°F / 24°C 68°F / 20°C 78% 30.01 in
(1016 mb)
Calm - 10SM
17:35
Overcast
75°F / 24°C 68°F / 20°C 78% 30.01 in
(1016 mb)
Calm - 10SM
17:15
Overcast
75°F / 24°C 68°F / 20°C 78% 30.01 in
(1016 mb)
Calm - 10SM
16:55
Overcast
75°F / 24°C 68°F / 20°C 78% 30.01 in
(1016 mb)
Calm - 10SM
16:35
Overcast
75°F / 24°C 68°F / 20°C 78% 30.01 in
(1016 mb)
N 3.5 mph
(N 6 kph)
- 10SM
16:15
Overcast
77°F / 25°C 68°F / 20°C 74% 30.01 in
(1016 mb)
N 3.5 mph
(N 6 kph)
- 10SM
15:55
Overcast
75°F / 24°C 68°F / 20°C 78% 30.01 in
(1016 mb)
N 3.5 mph
(N 6 kph)
- 10SM
15:35
Overcast
75°F / 24°C 68°F / 20°C 78% 30.01 in
(1016 mb)
N 3.5 mph
(N 6 kph)
- 10SM
15:15
Overcast
75°F / 24°C 68°F / 20°C 78% 30.01 in
(1016 mb)
N 5.8 mph
(N 9 kph)
- 10SM
14:55
Overcast
75°F / 24°C 68°F / 20°C 78% 30.01 in
(1016 mb)
N 5.8 mph
(N 9 kph)
- 10SM
14:35
Mostly Cloudy
75°F / 24°C 68°F / 20°C 78% 30.01 in
(1016 mb)
N 5.8 mph
(N 9 kph)
- 10SM
14:15
Overcast
77°F / 25°C 68°F / 20°C 74% 30.01 in
(1016 mb)
N 4.6 mph
(N 7 kph)
- 10SM
13:55
Mostly Cloudy
77°F / 25°C 68°F / 20°C 74% 30.01 in
(1016 mb)
NNE 3.5 mph
(NNE 6 kph)
- 10SM
13:35
Mostly Cloudy
77°F / 25°C 68°F / 20°C 74% 30.01 in
(1016 mb)
Calm - 10SM
13:15
Overcast
77°F / 25°C 68°F / 20°C 74% 30.01 in
(1016 mb)
NE 3.5 mph
(NE 6 kph)
- 10SM
12:55
Mostly Cloudy
77°F / 25°C 68°F / 20°C 74% 30.04 in
(1017 mb)
N 6.9 mph
(N 11 kph)
- 10SM
12:35
Mostly Cloudy
73°F / 23°C 66°F / 19°C 78% 30.04 in
(1017 mb)
NNW 6.9 mph
(NNW 11 kph)
- 10SM
12:15
Overcast
73°F / 23°C 66°F / 19°C 78% 30.04 in
(1017 mb)
N 4.6 mph
(N 7 kph)
- 10SM
11:55
Overcast
72°F / 22°C 66°F / 19°C 83% 30.04 in
(1017 mb)
NNW 4.6 mph
(NNW 7 kph)
- 10SM
11:35
Overcast
72°F / 22°C 66°F / 19°C 83% 30.04 in
(1017 mb)
NNW 5.8 mph
(NNW 9 kph)
- 10SM
11:15
Overcast
72°F / 22°C 66°F / 19°C 83% 30.04 in
(1017 mb)
NNW 5.8 mph
(NNW 9 kph)
- 10SM
10:55
Overcast
72°F / 22°C 66°F / 19°C 83% 30.04 in
(1017 mb)
N 5.8 mph
(N 9 kph)
- 10SM
10:35
Overcast
72°F / 22°C 66°F / 19°C 83% 30.04 in
(1017 mb)
N 5.8 mph
(N 9 kph)
- 10SM
10:15
Overcast
70°F / 21°C 64°F / 18°C 83% 30.04 in
(1017 mb)
N 4.6 mph
(N 7 kph)
- 10SM
09:55
Overcast
70°F / 21°C 64°F / 18°C 83% 30.04 in
(1017 mb)
N 6.9 mph
(N 11 kph)
- 10SM
09:35
Overcast
70°F / 21°C 66°F / 19°C 88% 30.04 in
(1017 mb)
N 8.1 mph
(N 13 kph)
- 10SM
09:15
Overcast
68°F / 20°C 64°F / 18°C 88% 30.04 in
(1017 mb)
N 9.2 mph
(N 15 kph)
- 10SM
08:55
Overcast
68°F / 20°C 64°F / 18°C 88% 30.04 in
(1017 mb)
N 6.9 mph
(N 11 kph)
- 10SM
08:35
Overcast
68°F / 20°C 64°F / 18°C 88% 30.04 in
(1017 mb)
NNW 9.2 mph
(NNW 15 kph)
- 7SM
08:15
Overcast
66°F / 19°C 64°F / 18°C 94% 30.04 in
(1017 mb)
NNW 8.1 mph
(NNW 13 kph)
- 10SM
07:55
Overcast
66°F / 19°C 64°F / 18°C 94% 30.04 in
(1017 mb)
NNW 6.9 mph
(NNW 11 kph)
- 10SM
07:35
Overcast
66°F / 19°C 64°F / 18°C 94% 30.04 in
(1017 mb)
NNW 9.2 mph
(NNW 15 kph)
- 10SM
07:15
Overcast
66°F / 19°C 64°F / 18°C 94% 30.04 in
(1017 mb)
NW 8.1 mph
(NW 13 kph)
- 7SM
06:55
Overcast
Fog And Mist
66°F / 19°C 64°F / 18°C 94% 30.04 in
(1017 mb)
NW 8.1 mph
(NW 13 kph)
- 2SM
06:35
Overcast
Fog And Mist
64°F / 18°C 64°F / 18°C 100% 30.04 in
(1017 mb)
NW 6.9 mph
(NW 11 kph)
- 2SM
06:15
Overcast
Drizzle
64°F / 18°C 64°F / 18°C 100% 30.04 in
(1017 mb)
NW 6.9 mph
(NW 11 kph)
- 2 1/2SM
05:55
Overcast
Rain
64°F / 18°C 64°F / 18°C 100% 30.01 in
(1016 mb)
NW 5.8 mph
(NW 9 kph)
0.01 in
(0.25 mm)
1 3/4SM
05:35
Overcast
Fog And Mist
64°F / 18°C 64°F / 18°C 100% 30.01 in
(1016 mb)
NW 5.8 mph
(NW 9 kph)
- 2SM
05:15
Overcast
Light Rain
64°F / 18°C 64°F / 18°C 100% 30.01 in
(1016 mb)
NNW 5.8 mph
(NNW 9 kph)
- 3SM
04:55
Overcast
Drizzle
64°F / 18°C 64°F / 18°C 100% 30.01 in
(1016 mb)
NW 4.6 mph
(NW 7 kph)
- 3SM
04:35
Overcast
Fog And Mist
64°F / 18°C 64°F / 18°C 100% 29.98 in
(1015 mb)
NW 4.6 mph
(NW 7 kph)
- 3SM
04:15
Overcast
Rain
64°F / 18°C 63°F / 17°C 94% 29.98 in
(1015 mb)
NNW 4.6 mph
(NNW 7 kph)
- 4SM
03:55
Overcast
Light Rain
66°F / 19°C 63°F / 17°C 88% 29.98 in
(1015 mb)
NW 8.1 mph
(NW 13 kph)
- 10SM
03:35
Overcast
66°F / 19°C 64°F / 18°C 94% 29.98 in
(1015 mb)
NW 4.6 mph
(NW 7 kph)
- 10SM
03:15
Overcast
66°F / 19°C 64°F / 18°C 94% 29.98 in
(1015 mb)
NW 3.5 mph
(NW 6 kph)
- 10SM
02:55
Overcast
66°F / 19°C 64°F / 18°C 94% 29.98 in
(1015 mb)
NW 4.6 mph
(NW 7 kph)
- 10SM
02:35
Overcast
66°F / 19°C 64°F / 18°C 94% 29.98 in
(1015 mb)
NW 4.6 mph
(NW 7 kph)
- 10SM
02:15
Overcast
66°F / 19°C 64°F / 18°C 94% 29.98 in
(1015 mb)
NW 4.6 mph
(NW 7 kph)
- 7SM
01:55
Overcast
66°F / 19°C 64°F / 18°C 94% 29.98 in
(1015 mb)
NNW 4.6 mph
(NNW 7 kph)
- 7SM
01:35
Overcast
66°F / 19°C 64°F / 18°C 94% 29.98 in
(1015 mb)
NNW 4.6 mph
(NNW 7 kph)
- 7SM
01:15
Overcast
66°F / 19°C 64°F / 18°C 94% 29.98 in
(1015 mb)
NNW 5.8 mph
(NNW 9 kph)
- 10SM
00:55
Overcast
66°F / 19°C 64°F / 18°C 94% 29.98 in
(1015 mb)
NNW 8.1 mph
(NNW 13 kph)
- 10SM
00:35
Overcast
66°F / 19°C 63°F / 17°C 88% 29.98 in
(1015 mb)
N 8.1 mph
(N 13 kph)
- 10SM
00:15
Overcast
66°F / 19°C 64°F / 18°C 94% 29.98 in
(1015 mb)
N 6.9 mph
(N 11 kph)
- 10SM
Time Weather Temperature Dewpoint Humidity Pressure Winds Precip Visibility


Weather for websites

WeatherForYou.com, LLC is not responsible for any damages or problems caused by this service. Current weather conditions are obtained from the closest station including government and personal stations which may have varying degrees of accuracy. Weather forecasts are derived from the NOAA NDFD. Like all things, this site belongs to Jesus Christ... He just trusts me to maintain it. If you have any questions or comments email webmaster@weatherforyou.com

Copyright © 2014, WeatherForYou.com LLC. All rights reserved.